Location: Ravensburg
(47.7866°N, 9.6124°E)
Time: 11:18:33
(UTC+02:00)

AO-73 - Pass Details

Date: 20 March 2026
Orbit: 514 x 567 km, 97.8° (Epoch: 19 April)

Event Time Altitude Azimuth Distance (km) Brightness Sun altitude
Rises 02:55:44 0° 34° (NNE) 2,654 ? -32.8°
Reaches altitude 10° 02:59:09 10° 67° (ENE) 1,751 ? -32.4°
Maximum altitude 03:00:33 12° 89° (E) 1,639 ? -32.2°
Enters shadow 03:00:37 12° 90° (E) 1,639 ? -32.2°
